This demonstration page uses our WeatherBlox Daily Observations layout. Learn more.

Left ArrowRight Arrow

41.55636, -103.73856

Hourly Observations for July 6, 2018

Temp ( °F °C ) Dew Point ( °F °C ) Humidity (%) Winds ( mph kmh ) Pressure ( in mb ) Visibility ( mi km ) Precip ( " mm )
12:58 am 00:58 Clear 64 17.8 59 15 84 84 S 10 17 30.37 1028 10 16 N/A
1:58 am 01:58 Mostly Cloudy 63 17 59 15 88 88 S 9 15 30.35 1028 10 16 N/A
2:58 am 02:58 Clear 61 16 59 15 94 94 S 9 15 30.35 1028 10 16 N/A
3:58 am 03:58 Mostly Clear 62 16.9 60 15.5 92 92 S 14 22 30.35 1028 10 16 N/A
4:58 am 04:58 Partly Cloudy 62 16.5 60 15.6 94 94 S 15 24 30.35 1028 10 16 N/A
5:58 am 05:58 Mostly Cloudy 63 17 61 16 94 94 S 16 26 30.35 1028 8 13 N/A
6:58 am 06:58 Sunny 64 18 61 16 88 88 SSW 18 30 30.35 1028 10 16 N/A
7:58 am 07:58 Sunny 67 19.7 61 16.1 80 80 S 21 33 30.35 1028 10 16 N/A
8:58 am 08:58 Sunny 72 22.1 61 16.2 69 69 SSW 21 33 30.34 1027 10 16 N/A
9:58 am 09:58 Sunny 75 23.9 61 16.2 62 62 S 16 26 30.33 1027 10 16 N/A
10:58 am 10:58 Sunny 78 25.4 59 14.8 52 52 S 20 31 30.31 1026 10 16 N/A
11:58 am 11:58 Sunny 81 27 57 13.7 44 44 S 16 26 30.31 1026 10 16 N/A
12:58 pm 12:58 Sunny 83 28.2 55 12.6 38 38 SSW 16 26 30.28 1025 10 16 N/A
1:58 pm 13:58 Sunny 84 29 54 12.4 36 36 SSW 15 24 30.26 1025 10 16 N/A
2:58 pm 14:58 Sunny 86 30 52 11.3 31 31 SSW 17 28 30.22 1024 10 16 N/A
3:58 pm 15:58 Sunny 87 30.4 52 10.9 30 30 S 14 22 30.19 1023 10 16 N/A
4:58 pm 16:58 Sunny 87 30.4 51 10.7 30 30 S 13 20 30.17 1022 10 16 N/A
5:58 pm 17:58 Sunny 86 30.2 52 11 30 30 S 13 20 30.16 1021 10 16 N/A
6:58 pm 18:58 Sunny 84 28.9 53 11.8 35 35 SSE 15 24 30.15 1021 10 16 N/A
7:58 pm 19:58 Sunny 80 26.6 55 12.8 42 42 SSE 13 20 30.16 1021 10 16 N/A
8:58 pm 20:58 Clear 75 24 57 14 54 54 SSE 13 20 30.16 1021 10 16 N/A
9:58 pm 21:58 undefined N/A N/A N/A undefined N/A N/A N/A N/A
10:58 pm 22:58 Clear 70 21.3 59 15.2 68 68 S 10 17 30.17 1022 10 16 N/A
11:58 pm 23:58 Clear 68 20.1 59 15 73 73 S 9 15 30.16 1021 10 16 N/A

Powered by AerisWeather